TNO5555 CYTZ-KAFW

Flight info

Callsign TNO5555
Flight time N/A
Altitude 36000
Route PERLO4 GNTRY DCT FWA DCT ENL/N0455F380 DCT RRNET TRUUK2
Aircraft A20N/M-SDE2E3FGHIRWXY/LB1

Departure

Time N/A
Airport Billy Bishop Toronto City Airport (CYTZ)

Arrival

Time 2026-04-19 23:44
Airport Perot Field/Fort Worth Alliance Airport (KAFW)
Time Latitude Longitude Altitude Speed Heading
2026-04-19 22:31 37.62319 -90.69861 36242 ft 388 kts 239°
2026-04-19 22:31 37.60642 -90.72528 36247 ft 388 kts 239°
2026-04-19 22:32 37.57285 -90.77859 36244 ft 388 kts 239°
2026-04-19 22:32 37.54486 -90.82298 36252 ft 389 kts 239°
2026-04-19 22:33 37.50566 -90.88501 36253 ft 390 kts 239°
2026-04-19 22:33 37.47190 -90.93838 36209 ft 390 kts 239°
2026-04-19 22:34 37.43819 -90.99158 36247 ft 389 kts 239°
2026-04-19 22:34 37.40445 -91.04474 36252 ft 388 kts 239°
2026-04-19 22:35 37.37651 -91.08869 36250 ft 388 kts 239°
2026-04-19 22:35 37.33725 -91.15036 36233 ft 388 kts 239°
2026-04-19 22:36 37.30346 -91.20333 36248 ft 389 kts 239°
2026-04-19 22:36 37.27532 -91.24739 36246 ft 389 kts 239°
2026-04-19 22:37 37.24142 -91.30038 36243 ft 389 kts 239°
2026-04-19 22:37 37.20754 -91.35327 36247 ft 389 kts 239°
2026-04-19 22:38 37.17366 -91.40605 36253 ft 388 kts 239°
2026-04-19 22:38 37.13431 -91.46727 36254 ft 388 kts 239°
2026-04-19 22:39 37.10617 -91.51099 36256 ft 388 kts 239°
2026-04-19 22:39 37.07221 -91.56366 36252 ft 389 kts 239°
2026-04-19 22:40 37.03813 -91.61643 36254 ft 390 kts 239°
2026-04-19 22:40 37.00401 -91.66918 36261 ft 390 kts 239°
2026-04-19 22:41 36.96987 -91.72187 36241 ft 389 kts 239°
2026-04-19 22:41 36.93604 -91.77399 36261 ft 388 kts 239°
2026-04-19 22:42 36.90201 -91.82637 36265 ft 388 kts 239°
2026-04-19 22:42 36.86797 -91.87866 36274 ft 388 kts 239°
2026-04-19 22:43 36.83387 -91.93098 36269 ft 388 kts 239°
2026-04-19 22:43 36.79969 -91.98333 36276 ft 389 kts 239°
2026-04-19 22:44 36.76571 -92.03528 36272 ft 389 kts 239°
2026-04-19 22:44 36.73147 -92.08756 36273 ft 389 kts 239°
2026-04-19 22:45 36.69725 -92.13971 36271 ft 388 kts 239°
2026-04-19 22:45 36.66311 -92.19167 36269 ft 387 kts 239°
2026-04-19 22:46 36.62899 -92.24354 36266 ft 387 kts 239°
2026-04-19 22:46 36.59505 -92.29504 36245 ft 387 kts 239°
2026-04-19 22:47 36.56089 -92.34679 36270 ft 387 kts 239°
2026-04-19 22:47 36.52668 -92.39854 36276 ft 387 kts 239°
2026-04-19 22:48 36.49248 -92.45020 36275 ft 387 kts 239°
2026-04-19 22:48 36.45824 -92.50183 36267 ft 386 kts 239°
2026-04-19 22:49 36.42434 -92.55286 36276 ft 385 kts 239°
2026-04-19 22:49 36.39024 -92.60413 36275 ft 385 kts 239°
2026-04-19 22:50 36.35611 -92.65537 36274 ft 385 kts 239°
2026-04-19 22:50 36.32197 -92.70656 36275 ft 385 kts 239°
2026-04-19 22:51 36.28776 -92.75775 36275 ft 386 kts 239°
2026-04-19 22:51 36.23661 -92.83416 36285 ft 386 kts 239°
2026-04-19 22:52 36.20229 -92.88532 36281 ft 386 kts 240°
2026-04-19 22:52 36.16796 -92.93644 36289 ft 386 kts 240°
2026-04-19 22:53 36.13362 -92.98748 36290 ft 386 kts 240°
2026-04-19 22:53 36.09945 -93.03821 36293 ft 387 kts 240°
2026-04-19 22:54 36.06502 -93.08924 36291 ft 387 kts 240°
2026-04-19 22:54 36.03046 -93.14037 36293 ft 387 kts 239°
2026-04-19 22:55 35.99589 -93.19145 36292 ft 387 kts 239°
2026-04-19 22:55 35.96154 -93.24214 36289 ft 388 kts 239°
2026-04-19 22:56 35.92692 -93.29312 36290 ft 387 kts 239°
2026-04-19 22:56 35.89227 -93.34404 36298 ft 387 kts 239°
2026-04-19 22:57 35.85768 -93.39488 36293 ft 387 kts 239°
2026-04-19 22:57 35.82304 -93.44573 36293 ft 387 kts 239°
2026-04-19 22:58 35.78857 -93.49620 36299 ft 387 kts 239°
2026-04-19 22:58 35.75379 -93.54695 36300 ft 388 kts 239°
2026-04-19 22:59 35.71904 -93.59767 36298 ft 388 kts 239°
2026-04-19 22:59 35.68432 -93.64835 36296 ft 387 kts 239°
2026-04-19 23:00 35.64983 -93.69858 36302 ft 387 kts 239°
2026-04-19 23:00 35.61510 -93.74900 36303 ft 387 kts 239°
2026-04-19 23:01 35.58036 -93.79947 36298 ft 387 kts 239°
2026-04-19 23:01 35.54563 -93.84984 36299 ft 387 kts 239°
2026-04-19 23:02 35.51078 -93.90029 36303 ft 387 kts 239°
2026-04-19 23:02 35.47618 -93.95028 36300 ft 387 kts 239°
2026-04-19 23:03 35.44134 -94.00057 36301 ft 387 kts 239°
2026-04-19 23:03 35.40647 -94.05081 36296 ft 386 kts 239°
2026-04-19 23:04 35.37165 -94.10089 36298 ft 386 kts 239°
2026-04-19 23:04 35.33705 -94.15062 36297 ft 386 kts 239°
2026-04-19 23:05 35.30222 -94.20058 36266 ft 386 kts 239°
2026-04-19 23:05 35.26732 -94.25060 36297 ft 387 kts 239°
2026-04-19 23:06 35.23202 -94.30108 36298 ft 387 kts 239°
2026-04-19 23:06 35.19719 -94.35083 36294 ft 387 kts 239°
2026-04-19 23:07 35.16214 -94.40083 36272 ft 387 kts 238°
2026-04-19 23:07 35.12704 -94.45081 36303 ft 387 kts 238°
2026-04-19 23:08 35.09197 -94.50069 36302 ft 387 kts 238°
2026-04-19 23:08 35.05684 -94.55058 36303 ft 387 kts 238°
2026-04-19 23:09 35.02170 -94.60042 36295 ft 388 kts 238°
2026-04-19 23:09 34.98641 -94.65040 36298 ft 389 kts 238°
2026-04-19 23:10 34.95113 -94.70027 36310 ft 389 kts 238°
2026-04-19 23:10 34.91595 -94.74994 36306 ft 389 kts 238°
2026-04-19 23:11 34.88055 -94.79985 36303 ft 389 kts 238°
2026-04-19 23:11 34.84491 -94.85004 36304 ft 389 kts 238°
2026-04-19 23:12 34.81194 -94.90154 36306 ft 382 kts 244°
2026-04-19 23:12 34.78318 -94.95575 36286 ft 381 kts 245°
2026-04-19 23:13 34.75457 -95.01013 36304 ft 382 kts 245°
2026-04-19 23:13 34.72586 -95.06452 36307 ft 382 kts 245°
2026-04-19 23:14 34.69713 -95.11881 36306 ft 382 kts 245°
2026-04-19 23:14 34.66839 -95.17302 36311 ft 381 kts 245°
2026-04-19 23:15 34.63964 -95.22717 36312 ft 382 kts 245°
2026-04-19 23:15 34.61081 -95.28136 36309 ft 381 kts 245°
2026-04-19 23:16 34.58210 -95.33526 36292 ft 379 kts 244°
2026-04-19 23:16 34.55349 -95.38888 36318 ft 378 kts 244°
2026-04-19 23:17 34.52463 -95.44225 36315 ft 380 kts 242°
2026-04-19 23:17 34.48812 -95.48996 36327 ft 392 kts 232°
2026-04-19 23:18 34.44732 -95.53428 36322 ft 394 kts 231°
2026-04-19 23:18 34.40622 -95.57875 36321 ft 394 kts 231°
2026-04-19 23:19 34.36543 -95.62296 36323 ft 394 kts 231°
2026-04-19 23:19 34.32464 -95.66716 36326 ft 392 kts 231°
2026-04-19 23:20 34.28425 -95.71083 36315 ft 388 kts 232°
2026-04-19 23:20 34.24408 -95.75428 36330 ft 387 kts 232°
2026-04-19 23:21 34.20399 -95.79759 36327 ft 387 kts 231°
2026-04-19 23:21 34.16362 -95.84081 36330 ft 387 kts 231°
2026-04-19 23:22 34.12329 -95.88387 36329 ft 387 kts 231°
2026-04-19 23:22 34.10305 -95.90549 36201 ft 391 kts 231°
2026-04-19 23:22 34.08265 -95.92726 35526 ft 392 kts 231°
2026-04-19 23:23 34.06212 -95.94915 34530 ft 395 kts 231°
2026-04-19 23:23 34.04190 -95.97095 33541 ft 395 kts 232°
2026-04-19 23:23 34.02310 -95.99490 32437 ft 392 kts 238°
2026-04-19 23:23 34.00640 -96.02086 31261 ft 395 kts 241°
2026-04-19 23:24 33.99005 -96.04781 29955 ft 402 kts 241°
2026-04-19 23:24 33.97356 -96.07542 28474 ft 410 kts 241°
2026-04-19 23:24 33.95681 -96.10355 26981 ft 419 kts 240°
2026-04-19 23:24 33.93963 -96.13240 25481 ft 428 kts 240°
2026-04-19 23:25 33.92184 -96.16228 24002 ft 438 kts 239°
2026-04-19 23:25 33.90392 -96.19230 22633 ft 444 kts 239°
2026-04-19 23:25 33.88594 -96.22237 21883 ft 440 kts 239°
2026-04-19 23:25 33.86839 -96.25166 21217 ft 435 kts 239°
2026-04-19 23:26 33.85056 -96.28144 20510 ft 431 kts 239°
2026-04-19 23:26 33.83313 -96.31055 19838 ft 426 kts 239°
2026-04-19 23:26 33.81603 -96.33908 19509 ft 412 kts 239°
2026-04-19 23:26 33.79974 -96.36617 19259 ft 390 kts 239°
2026-04-19 23:27 33.78424 -96.39195 19005 ft 369 kts 239°
2026-04-19 23:27 33.76978 -96.41601 18774 ft 353 kts 239°
2026-04-19 23:27 33.75547 -96.43991 18535 ft 352 kts 239°
2026-04-19 23:27 33.74117 -96.46383 18255 ft 352 kts 239°
2026-04-19 23:28 33.72689 -96.48766 17982 ft 352 kts 239°
2026-04-19 23:28 33.71259 -96.51149 17737 ft 351 kts 239°
2026-04-19 23:28 33.69831 -96.53523 17471 ft 351 kts 238°
2026-04-19 23:28 33.68405 -96.55891 17207 ft 350 kts 238°
2026-04-19 23:29 33.66976 -96.58263 16952 ft 349 kts 238°
2026-04-19 23:29 33.65579 -96.60579 16486 ft 347 kts 238°
2026-04-19 23:29 33.64168 -96.62920 15962 ft 347 kts 238°
2026-04-19 23:29 33.62753 -96.65262 15481 ft 345 kts 237°
2026-04-19 23:30 33.61348 -96.67589 15021 ft 344 kts 237°
2026-04-19 23:30 33.59944 -96.69911 14531 ft 343 kts 237°
2026-04-19 23:30 33.58550 -96.72215 14049 ft 343 kts 237°
2026-04-19 23:30 33.57150 -96.74529 13537 ft 341 kts 236°
2026-04-19 23:31 33.55760 -96.76822 13061 ft 338 kts 236°
2026-04-19 23:31 33.54387 -96.79088 12605 ft 335 kts 236°
2026-04-19 23:31 33.53023 -96.81337 12145 ft 332 kts 236°
2026-04-19 23:31 33.51667 -96.83572 11679 ft 330 kts 235°
2026-04-19 23:32 33.50325 -96.85783 11227 ft 328 kts 235°
2026-04-19 23:32 33.48985 -96.87988 10776 ft 326 kts 234°
2026-04-19 23:32 33.47673 -96.90147 10326 ft 324 kts 234°
2026-04-19 23:32 33.46366 -96.92295 10163 ft 312 kts 234°
2026-04-19 23:33 33.45117 -96.94347 10062 ft 298 kts 234°
2026-04-19 23:33 33.43923 -96.96308 9933 ft 286 kts 234°
2026-04-19 23:33 33.42756 -96.98225 9528 ft 284 kts 234°
2026-04-19 23:33 33.41606 -97.00112 9306 ft 275 kts 233°
2026-04-19 23:34 33.40500 -97.01926 9156 ft 265 kts 233°
2026-04-19 23:34 33.39434 -97.03674 8982 ft 256 kts 233°
2026-04-19 23:34 33.38396 -97.05375 8709 ft 251 kts 233°
2026-04-19 23:34 33.37385 -97.07031 8405 ft 249 kts 232°
2026-04-19 23:35 33.36371 -97.08690 8089 ft 247 kts 232°
2026-04-19 23:35 33.35356 -97.10350 7750 ft 247 kts 232°
2026-04-19 23:35 33.34344 -97.12005 7342 ft 250 kts 231°
2026-04-19 23:35 33.33291 -97.13723 6768 ft 262 kts 231°
2026-04-19 23:36 33.32193 -97.15513 6318 ft 271 kts 231°
2026-04-19 23:36 33.31078 -97.17335 5972 ft 272 kts 231°
2026-04-19 23:36 33.29961 -97.19159 5644 ft 272 kts 231°
2026-04-19 23:36 33.28865 -97.20950 5310 ft 271 kts 230°
2026-04-19 23:37 33.27748 -97.22770 4970 ft 271 kts 230°
2026-04-19 23:37 33.26644 -97.24570 4741 ft 263 kts 231°
2026-04-19 23:37 33.25584 -97.26301 4594 ft 253 kts 231°
2026-04-19 23:37 33.24565 -97.27963 4420 ft 244 kts 231°
2026-04-19 23:38 33.23567 -97.29586 4161 ft 241 kts 231°
2026-04-19 23:38 33.22577 -97.31194 3859 ft 239 kts 231°
2026-04-19 23:38 33.21597 -97.32785 3576 ft 237 kts 231°
2026-04-19 23:38 33.20578 -97.34326 3226 ft 237 kts 223°
2026-04-19 23:39 33.19285 -97.35501 2884 ft 233 kts 203°
2026-04-19 23:39 33.17726 -97.35836 2479 ft 231 kts 175°
2026-04-19 23:39 33.16157 -97.35606 2323 ft 223 kts 169°
2026-04-19 23:39 33.14690 -97.35298 2383 ft 200 kts 168°
2026-04-19 23:40 33.13420 -97.35025 2390 ft 170 kts 168°
2026-04-19 23:40 33.12353 -97.34798 2361 ft 143 kts 168°
2026-04-19 23:40 33.11413 -97.34599 2371 ft 135 kts 168°
2026-04-19 23:40 33.10486 -97.34403 2385 ft 136 kts 167°
2026-04-19 23:41 33.09551 -97.34206 2394 ft 136 kts 167°
2026-04-19 23:41 33.08615 -97.34012 2375 ft 137 kts 167°
2026-04-19 23:41 33.07679 -97.33818 2213 ft 136 kts 167°
2026-04-19 23:41 33.06758 -97.33628 2013 ft 137 kts 167°
2026-04-19 23:42 33.05823 -97.33435 1817 ft 136 kts 167°
2026-04-19 23:42 33.04894 -97.33244 1645 ft 136 kts 169°
2026-04-19 23:42 33.03964 -97.33054 1452 ft 135 kts 168°
2026-04-19 23:42 33.03044 -97.32866 1289 ft 134 kts 168°
2026-04-19 23:43 33.02124 -97.32678 1091 ft 135 kts 167°
2026-04-19 23:43 33.01194 -97.32491 912 ft 135 kts 168°
2026-04-19 23:43 33.00273 -97.32306 755 ft 131 kts 168°
2026-04-19 23:43 32.99490 -97.32137 721 ft 81 kts 171°
2026-04-19 23:44 32.99226 -97.32078 719 ft 9 kts 127°
2026-04-19 23:44 32.99217 -97.31999 718 ft 11 kts 91°
2026-04-19 23:44 32.99225 -97.31914 717 ft 11 kts 81°
2026-04-19 23:44 32.99237 -97.31814 716 ft 13 kts 85°
2026-04-19 23:45 32.99174 -97.31739 717 ft 21 kts 166°
2026-04-19 23:45 32.99026 -97.31706 714 ft 22 kts 169°
2026-04-19 23:45 32.98867 -97.31675 702 ft 24 kts 170°
2026-04-19 23:45 32.98693 -97.31637 696 ft 26 kts 169°
2026-04-19 23:46 32.98512 -97.31599 696 ft 27 kts 169°
2026-04-19 23:46 32.98331 -97.31559 698 ft 26 kts 171°
2026-04-19 23:46 32.98157 -97.31559 694 ft 24 kts 220°
2026-04-19 23:46 32.98105 -97.31761 697 ft 26 kts 262°
2026-04-19 23:47 32.98072 -97.31983 691 ft 28 kts 259°
2026-04-19 23:47 32.98147 -97.32096 685 ft 28 kts 341°
2026-04-19 23:47 32.98353 -97.32143 696 ft 29 kts 352°
2026-04-19 23:47 32.98537 -97.32177 704 ft 24 kts 347°
2026-04-19 23:48 32.98597 -97.32267 714 ft 12 kts 258°
2026-04-19 23:48 32.98594 -97.32288 711 ft 0 kts 257°